Flag for Canada Weather past 2 weeks in Burnaby, British Columbia, Canada

Now
48 °F

Passing clouds.


Feels Like: 42 °F
Forecast: 31 / 49 °F
Wind: 15 mph from Northwest

Location: Vancouver International Air-Port

Current Time: Mar 2, 2015 at 3:28:32 PM

Latest Report: Mar 2, 2015 at 3:00 PM


Visibility: 30 mi

Pressure: 30.07 "Hg

Humidity: 76%

Dew point: 41 °F

Location of BurnabyLocation

Historic Weather in Burnaby — Graph

°F

Burnaby temperature yesterday

Maximum temperature yesterday: 46 °F (at 1:00 PM)
Minimum temperature yesterday: 34 °F (at 4:00 AM)
Average temperature yesterday: 40 °F

Past Weeks' High & Low Weather Summary

 TemperatureHumidityPressure
High54 °F (Feb 18, 12:00 PM)100% (Feb 15, 6:00 PM)30.50 "Hg (Feb 15, 6:00 PM)
Low30 °F (Feb 28, 4:00 AM)40% (Feb 28, 10:00 AM)29.78 "Hg (Feb 27, 7:00 AM)
Average43 °F86%30.25 "Hg
* Reported Feb 15 2:00 PM — Mar 2 2:00 PM, Burnaby, Weather by CustomWeather, © 2015

Note: Actual official high and low records may vary slightly from our data, if they occured in-between our weather recording intervals... More about our weather records

Advertising

Burnaby weather history for previous 24 hours

 ConditionsComfort  
Time TempWeatherWind HumidityBarometerVisibility
2:00 PM
Mon, Mar 2
48 °FPassing clouds.16 mph76%30.07 "Hg30 mi
1:00 PM46 °FPassing clouds.17 mph82%30.08 "Hg30 mi
12:00 PM46 °FPassing clouds.17 mph76%30.09 "Hg30 mi
11:00 AM45 °FPassing clouds.17 mph81%30.10 "Hg30 mi
10:00 AM43 °FPassing clouds.16 mph87%30.11 "Hg30 mi
9:00 AM43 °FPassing clouds.16 mph81%30.09 "Hg30 mi
8:00 AM41 °FPassing clouds.14 mph87%30.09 "Hg20 mi
7:00 AM39 °FPassing clouds.14 mph87%30.08 "Hg20 mi
6:00 AM37 °FClear.12 mph93%30.06 "Hg20 mi
5:00 AM37 °FClear.12 mph93%30.05 "Hg15 mi
4:00 AM39 °FClear.13 mph87%30.05 "Hg20 mi
3:00 AM39 °FClear.14 mph93%30.05 "Hg20 mi
2:00 AM36 °FClear.7 mph93%30.05 "Hg20 mi
1:00 AM37 °FPassing clouds.6 mph93%30.06 "Hg15 mi
12:00 AM37 °FPassing clouds.6 mph93%30.05 "Hg15 mi
11:00 PM
Sun, Mar 1
39 °FOvercast.5 mph93%30.05 "Hg15 mi
10:00 PM39 °FLight rain. Mostly cloudy.2 mph93%30.05 "Hg12 mi
9:00 PM39 °FLight rain. Mostly cloudy.3 mph93%30.04 "Hg10 mi
8:00 PM39 °FLight rain. Mostly cloudy.7 mph93%30.04 "Hg10 mi
7:00 PM41 °FLight rain. Mostly cloudy.3 mph81%30.04 "Hg10 mi
6:00 PM41 °FLight rain. Mostly cloudy.5 mph76%30.05 "Hg12 mi
5:00 PM43 °FSprinkles. Mostly cloudy.13 mph81%30.07 "Hg15 mi
4:00 PM43 °FMostly cloudy.10 mph87%30.08 "Hg20 mi
3:00 PM45 °FMostly cloudy.6 mph81%30.09 "Hg20 mi
Weather by CustomWeather, © 2015

See weather overviewHow to use our weather pages